Location: Newark
(0.5300°S, 127.4800°E)
Time: 06:10:09
(UTC+00:00)

Vanguard 3 - Pass Details

Date: 26 September 2019
Orbit: 508 x 3262 km, 33.3° (Epoch: 15 October)

Event Time Altitude Azimuth Distance (km) Brightness Sun altitude
Rises 04:21:13 0° 315° (NW) 7,176 12.1 75.1°
Reaches altitude 10° 04:26:23 10° 320° (NW) 6,195 11.9 73.8°
Maximum altitude 04:45:12 51° 31° (NNE) 3,318 10.9 69.1°
Drops below altitude 10° 04:58:22 10° 103° (ESE) 4,518 10.8 65.8°
Sets 05:01:25 0° 108° (ESE) 5,195 11.0 65.0°
